Voltar ao catálogo

FENGYUN 1C DEB

AtivoSSO
NORAD 31854·DEBRIS·🇨🇳 China

Lançado May 10, 1999 de Taiyuan Satellite Launch Center

Loading…

Próximas Passagens (próximas 24 horas)

TLE

AtualizadoSource: Space-Track

Época: Sep 14, 2026, 06:06 UTC

1 31854U 99025CJU 26257.25454584  .00000050  00000-0  57945-4 0  9994
2 31854  98.8543 257.9980 0073442  92.1770 268.7809 14.03381110731368

Acompanhe FENGYUN 1C DEB em tempo real com AllMySat

Download on the App Store